Location: Ferchesar
(52.6477°N, 12.4298°E)
Time: 16:58:24
(UTC+01:00)

Tiros 1 - Pass Details

Date: 05 December 2021
Orbit: 629 x 664 km, 48.4° (Epoch: 22 January)

Event Time Altitude Azimuth Distance (km) Brightness Sun altitude
Rises 20:13:44 0° 251° (WSW) 2,927 11.2 -37.6°
Reaches altitude 10° 20:16:05 10° 246° (WSW) 2,024 10.2 -38.0°
Enters shadow 20:16:10 10° 246° (WSW) 1,997 10.2 -38.0°
Maximum altitude 20:20:34 49° 172° (S) 834 - -38.6°
Drops below altitude 10° 20:25:07 10° 98° (E) 2,048 - -39.3°
Sets 20:27:31 0° 93° (E) 2,965 - -39.6°
